Orbital elements:
 144P/Kushida
Epoch 2009 Jan. 9.0 TT = JDT 2454840.5
T 2009 Jan. 26.85516 TT                                 MPC
q   1.4389476            (2000.0)            P               Q
n   0.12964580     Peri.  216.09374     -0.20071096     -0.97747582
a   3.8663136      Node   245.56545     +0.91476860     -0.16316963
e   0.6278244      Incl.    4.10917     +0.35059025     -0.13385329
P   7.60
Residuals in seconds of arc
940107 675  1.0+  1.8-    940120 046  0.6-  0.1+    940310 871  0.0   0.7+
940107 675  1.9-  1.0-    940120 391  1.0-  0.6+    940310 871  0.7+  0.6+
940108 896 (9.4- 12.3-)Y  940120 391  0.5-  0.7+    940310 605  0.7+  0.2-
940108 896(16.3- 12.5-)Y  940120 391  1.0+  0.0     940310 605  1.5+  1.3-
940109 897  0.1+  0.4+    940121 372  0.8+  0.3+    940311 887  0.2+  0.3+
940109 897  0.3+  0.4+    940122 391  0.9-  0.9-    940311 887  0.7+  0.0
940109 897  0.3+  0.3+    940122 391  1.0-  0.5-    940311 887  0.1-  0.1+
940109 385  0.4+  0.1+    940122 391  0.4-  0.2-    940311 056 (1.2-  2.2-)
940109 385  0.4+  0.2-    940122 587  0.7-  0.5+    940311 056 (0.7+  3.8-)
940109 360  0.8+  0.1+    940122 587  0.7-  0.3+    940311 540  1.1+  0.2+
940109 360  0.7+  0.1+    940123 897  0.2-  0.1+    940311 540  0.2+  0.2+
940109 360  0.7+  0.0     940123 897  1.2-  0.3+    940311 540  0.4-  0.2-
940109 411  0.8+  0.7-    940123 605  0.2-  1.6-    940311 540  0.2+  1.9-
940109 411  0.6+  0.8-    940123 605  1.6-  0.1-    940312 801  0.4+  0.0
940109 411  0.5+  0.7-    940123 605  0.4-  0.4-    940312 801  0.5+  0.2-
940109 871  0.4+  0.0     940123 605  0.8-  1.2-    940312 675  0.5+  0.7-
940109 871  1.6+  0.3+    940125 360  0.2-  0.1+    940312 675  1.0+  1.2-
940109 871  0.8+  0.7-    940125 360  0.4-  0.1+    940312 056  0.4+  1.5-
940109 402  1.0+  0.1+    940127 104 (2.0-  0.1+)   940312 056  0.6-  1.3-
940109 391  0.4-  1.0-    940127 104  1.8-  0.6-    940313 391  0.2+  1.9+
940109 402  1.1+  0.2+    940127 104  1.4-  0.8-    940313 391  0.6-  0.8-
940109 391  0.5+  0.2-    940131 657  1.7-  0.4-    940314 675  1.5+  0.3-
940110 400  0.7+  0.3+    940201 897  1.1-  0.7-    940314 675  0.7+  0.9-
940110 365  0.2+  1.2-    940201 897  0.9-  0.0     940314 391  1.2-  0.1+
940110 400  0.3-  0.9+    940203 360  0.6-  0.3-    940314 391  0.1-  0.1+
940110 365  0.8-  0.3-    940203 360  0.6-  0.4-    940315 391  1.2+  0.8-
940110 896 (2.9+  0.4-)   940206 893 (2.6-  0.1+)   940315 391  0.7+  1.2+
940110 896 (2.6+  2.6-)   940206 893  0.7-  0.2+    940317 391  0.8-  0.9+
940111 675  0.5-  0.0     940206 893 (2.4+  1.5-)   940317 391  1.2-  0.8+
940111 323  1.1+  0.4+    940207 896 (3.5-  0.6+)   940317 897  0.6-  0.1-
940111 871  0.9+  0.2-    940207 391  0.4-  0.3+    940317 897  0.7+  0.9+
940111 871  1.0+  0.6+    940207 391  0.1-  1.3-    940317 360  0.4-  0.7+
940111 372  0.9+  0.4+    940207 893  0.2-  1.8-    940317 360  0.2-  0.7+
940111 385  0.8+  0.3+    940207 893  0.3-  0.1-    940318 391  0.3-  0.0
940111 385  0.5+  0.2+    940207 893  0.0   0.4-    940318 391  0.7-  0.5+
940111 385  0.6+  0.2+    940209 385  0.6-  0.6-    940319 391 (4.0-  1.4+)
940111 372  1.3+  0.1-    940209 385  0.6-  0.5-    940319 391  1.7-  0.4+
940111 385  0.2+  0.2+    940209 385  0.5-  0.6-    940321 801  0.6-  1.3+
940111 896  1.7+  0.3-    940209 046  0.3-  0.2-    940321 801  0.3-  0.6+
940111 896  0.1+  0.2-    940209 046  0.3-  0.3-    940321 605  0.3+  1.0+
940112 391  1.6+  0.3+    940209 046  0.0   0.1-    940321 605  0.1-  0.6-
940112 399  0.6+  1.2+    940209 046  0.4-  0.2-    940327 540  1.5+  0.8+
940112 391  1.2+  0.4+    940209 046  0.4+  0.6-    940327 540  0.8+  1.2+
940112 391  0.3+  0.5+    940209 046  0.3-  0.5-    940327 540 (1.1+  2.5+)
940112 323  1.5+  0.5+    940209 046  0.1-  0.5-    940327 540 (3.4+  2.6+)
940112 391  0.9+  0.1+    940210 366  0.3-  0.4-    940330 540 (2.7+  0.1+)
940113 400 (1.0+  2.8+)   940210 366  0.4-  0.5-    940330 540  1.3+  1.6+
940113 400 (0.6+  2.1+)   940211 391  0.5-  0.3+    940330 540  1.7+  1.4+
940113 596  1.6+  0.5+    940212 605  0.6-  1.1-    940330 540  1.7+  1.5+
940113 596  0.3+  0.0     940212 605  0.3+  0.1-    940330 605  0.0   1.8-
940114 897  0.5+  0.5+    940212 693  0.5-  0.0     940330 605  0.4+  0.4+
940114 897  0.9+  0.0     940212 693  0.4-  0.0     940331 897  0.2+  0.6-
940114 897  0.8+  0.2+    940212 693  0.3-  0.1+    940331 897  0.2+  0.6-
940114 871  0.2+  0.8-    940214 887  0.1+  0.5-    940402 410  1.0+  1.2-
940114 871  0.2+  0.1-    940214 887  0.5-  0.2-    940402 410  1.5-  0.2+
940114 871  0.5+  1.4-    940214 887  0.4-  0.2-    940405 691  0.3-  0.5+
940114 385  0.7+  0.3+    940214 893  0.0   0.1-    940405 691  0.7-  0.4+
940114 385  0.6+  0.3+    940214 893  0.2-  0.1-    940405 691  0.8-  0.7+
940114 385  0.4+  0.0     940214 893  0.6-  0.2+    940408 801  0.9-  0.3+
940114 385  0.6+  0.1+    940214 104  0.9-  0.8-    940408 801  1.1-  0.2+
940114 887  0.6+  0.2+    940214 104  0.8-  0.9-    940408 360  0.3-  0.1+
940114 887  0.7+  0.1-    940214 104  0.7-  0.9-    940408 360  0.4-  0.0
940114 887  0.6+  0.1+    940214 605  0.7+  1.7-    940411 693  0.8-  1.2+
940114 887  0.8+  0.0     940214 605  0.3-  0.7-    940411 693  0.9-  0.7+
940114 896  0.3-  0.1-    940214 605  0.2-  1.6-    940411 693  0.8-  0.8+
940115 900  0.2-  0.3+    940215 056  1.1-  0.2-    940415 801  0.6+  0.5+
940115 900  0.3+  0.5+    940215 056  0.4-  1.0-    940415 801  1.9-  0.4+
940115 367  0.6+  0.1-    940215 605  0.0   1.2-    940418 605  1.6+  0.9+
940115 367  0.7+  0.3+    940215 605  0.3+  1.0-    940418 605  0.4+  1.7+
940115 402  0.3+  0.4-    940216 372  0.4+  1.0+    940429 372 (3.6+  1.0-)
940115 402  0.2+  0.1-    940216 605  0.0   1.2-    940502 786  0.8-  1.5-
940115 372  0.9+  1.6+    940217 391  0.9-  0.8-    940503 658  0.4-  1.1+
940115 410  0.7+  0.3+    940217 391  1.6-  1.3-    940503 658  0.3-  1.1+
940115 896  1.5+  0.4-    940217 391 (0.0   2.2-)   940503 658  1.1-  1.0+
940115 410  0.5+  0.4-    940217 372  0.3+  0.7+    940503 658  1.1-  0.9+
940115 896  2.0+  1.3+    940217 605  0.9-  0.7-    940504 691  0.4-  0.8+
940115 360  0.7+  0.1+    940218 391  0.2-  0.2-    940504 691  0.3-  1.0+
940115 360  0.7+  0.0     940218 410  0.2-  0.5-    940504 691  0.8-  0.9+
940115 540  0.6-  1.0+    940218 410  0.0   0.7-    940506 360  0.3-  0.4+
940115 540  0.2+  1.2+    940218 410  0.2-  0.3-    940506 360  0.4+  0.8+
940115 540  0.0   0.4-    940218 605  0.2-  1.1-    940506 410  1.9+  0.2-
940115 540  0.5-  0.5+    940219 786  0.7+  1.4+    940506 897 (3.2+  4.3+)
940116 978 (3.3-  2.8+)   940219 786  1.0+  0.9+    940506 410  0.6+  0.2-
940116 675  1.1-  0.9+    940219 391  0.2+  0.7-    940509 786 (2.0-  2.5+)
940116 675  0.9-  0.8+    940219 391  0.8-  0.0     940511 801 (3.5+  4.7-)
940116 896  0.3+  1.0+    940219 391  0.5-  0.1-    940511 801  0.5+  0.1+
940116 391  0.2-  0.2-    940221 372  0.3-  0.6+    940512 360  0.7-  0.6+
940116 391  0.3-  1.0-    940302 360  0.5+  0.1+    940512 360  0.5-  0.4+
940116 391  1.8-  0.5+    940302 360  0.5+  0.1+    940513 046  0.2-  1.7+
940116 896  1.6-  0.2-    940303 970 (0.6-  2.1-)   940513 046 (1.3-  2.2+)
940117 605 (2.2-  0.4-)   940304 323  0.2+  0.3+    940513 046 (2.3-  1.5+)
940117 605 (1.7+  2.9-)   940304 897  1.1+  0.4-    940515 801  1.9-  1.8+
940117 691  0.4-  0.5+    940304 897  0.1+  0.1+    940515 801 (7.3+  2.7+)
940117 691  0.1-  0.4+    940304 897  0.7+  0.6-    940601 360  1.0+  0.7-
940117 691  1.1-  0.3+    940304 540  0.2-  0.8-    940601 360  0.3+  0.5-
940117 323  1.7+  1.9+    940304 540  1.2-  0.6-    940613 691  1.0+  0.4+
940118 540  0.3-  0.9+    940304 540  0.1-  1.3-    940613 691  0.9+  1.2-
940118 540  1.7-  0.1+    940304 605  0.5+  1.4-    940613 691  0.9+  0.4-
940118 540 (2.2-  0.6-)   940304 540  0.0   0.0     940705 691  0.7-  1.9-
940118 540  0.1-  0.4-    940304 605  1.1+  0.4-    940705 691  0.1-  0.2-
940118 596  0.2-  0.3-    940305 108  1.1-  0.7+    940705 691  0.9+  0.1-
940118 596  0.0   0.4+    940305 108  0.9-  0.8+    940709 691  1.0+  0.4-
940119 026  1.4+  1.1+    940305 108  0.1+  0.6+    940709 691  0.2+  0.1-
940119 391  0.2-  0.6+    940306 108  1.3+  0.4-    000725 809  0.9-  1.2-
940119 391 (2.5-  1.4+)   940306 786  1.9+  0.7-    000725 809  0.3-  0.5-
940119 391  2.0-  1.2+    940306 786  1.7+  0.5-    000725 809  1.9-  1.9-
940119 046  0.6-  0.2+    940306 410  0.2+  0.6-    000725 809  0.8-  0.9-
940119 046  0.5-  0.1+    940306 410  0.2+  0.5+    000727 809  0.7+  0.6-
940119 046  0.5-  0.0     940306 410  0.3+  0.1-    000727 809  0.0   0.0
940119 046  0.8-  0.3+    940308 056  1.2+  0.2+    000727 809  0.0   0.0
940120 046  0.5-  0.0     940309 056 (0.5-  3.7-)   070618 568  1.3+  0.6+
940120 046  0.5-  0.0     940309 056  1.5+  1.4-    070618 568  1.3+  0.4+
940120 046  0.5-  0.0     940310 897  0.6+  0.1+    070618 568  1.2+  1.2+
940120 046  0.6-  0.1-    940310 897  0.3-  0.5-    070709 245 (2.1+  2.4-)
940120 046  0.5-  0.1+    940310 360  0.2-  0.2+    070710 245  1.6+  1.7-
940120 046  0.5-  0.2+    940310 360  0.2-  0.1+

